Weather in Zelenyi Yar

Ukraine / Kyiv Region     49°48′34″N   30°51′21″E
В апреле 2022 года жителям России запретили посещать сайт meteo.paraplan.net по решению Генеральной прокуратуры. Аудитория сайта уменьшилась в 10 раз. Владельцы сайта не видят смысла в поддержке погодного сервера в таких условиях. Сайт будет закрыт в октябре.
temp.,
°C
wind,
m/s
gust,
m/s
humid.,
%
clouds,
%
prec.,
mm/h
press.,
hPa
HPBL,
m
30 september, fri
fri3000:00+15sse41189100 2.5 1009354
03:00+15sse4896100 5.0 1009231
06:00+13sse229853 0.9 101045
09:00+15ssw119129 0.9 1011155
12:00+21w1166100 0.0 1013597
15:00+22wsw2257100 0.0 1013972
18:00+19wsw2269100 0.0 101412
21:00+17sw1275100 0.0 101511
1 october, sat
sat100:00+15sw22835 0.0 101518
03:00+15ssw3481100 0.0 101554
06:00+14ssw34835 0.0 101566
09:00+16w4974100 0.0 1016281
12:00+20w585727 0.0 1016907
15:00+21w4652100 0.0 10161238
18:00+17n347533 0.0 1015115
21:00+15wnw1189100 0.5 101413
2 october, sun
sun200:00+15n2392100 1.7 101296
03:00+14ese4895100 3.6 1010243
06:00+13e379694 0.6 1008183
09:00+13nnw2395100 1.2 1006158
12:00+15wnw3691100 0.3 1006396
15:00+15wnw698798 1.5 1005758
18:00+12nw91486100 0.4 1006803
21:00+11nw61289100 0.5 1007813
3 october, mon
mon300:00+11nw6108597 0.1 1007930
03:00+11wnw71189100 0.3 1007728
06:00+10w71290100 0.7 1006930
09:00+10wnw7119096 3.1 1008947
12:00+11wnw71083100 0.4 1009850
15:00+10wnw598693 0.8 1010631
18:00+11wnw6108176 0.7 1011725
21:00+8w4109291 0.7 1013349
4 october, tue
tue400:00+9w51090100 0.2 1013500
03:00+9wsw4987100 0.3 1013399
06:00+9sw51089100 0.1 1013466
09:00+10sw51087100 0.4 1013579
12:00+12wsw6978100 0.4 1013847
15:00+10sw5887100 1.7 1014423
18:00+11w488195 1.4 1015253
21:00+8w34905 1.4 101676